"Sample Date","Sample Time","Sample Value","Units","Flow Rate","Sample Interval","Number Channels","Micron Size 0","Counts/Channel 0","Micron Size 1","Counts/Channel 1","Micron Size 2","Counts/Channel 2","Micron Size 3","Counts/Channel 3","Micron Size 4","Counts/Channel 4","Micron Size 5","Counts/Channel 5","Micron Size 6","Counts/Channel 6","Micron Size 7","Counts/Channel 7","Micron Size 8","Counts/Channel 8","Micron Size 9","Counts/Channel 9","Micron Size 10","Counts/Channel 10","Micron Size 11","Counts/Channel 11","Micron Size 12","Counts/Channel 12","Micron Size 13","Counts/Channel 13","Micron Size 14","Counts/Channel 14","Micron Size 15","Counts/Channel 15","Micron Size 16","Counts/Channel 16","Micron Size 17","Counts/Channel 17","Micron Size 18","Counts/Channel 18","Micron Size 19","Counts/Channel 19","Micron Size 20","Counts/Channel 20","Micron Size 21","Counts/Channel 21","Micron Size 22","Counts/Channel 22","Micron Size 23","Counts/Channel 23","Micron Size 24","Counts/Channel 24","Micron Size 25","Counts/Channel 25","Micron Size 26","Counts/Channel 26","Micron Size 27","Counts/Channel 27","Micron Size 28","Counts/Channel 28","Micron Size 29","Counts/Channel 29","Micron Size 30","Counts/Channel 30","Micron Size 31","Counts/Channel 31"
"04/05/08","03:00:00",1517.000,"cc",28257.838,6.00,6,0.100,1361.000,0.200,110.000,0.300,33.000,0.500,13.000,1.000,0,5.000,0
"04/05/08","03:00:06",1574.000,"cc",28350.690,6.00,6,0.100,1421.000,0.200,104.000,0.300,37.000,0.500,11.000,1.000,1.000,5.000,0
"04/05/08","03:00:12",1596.000,"cc",28268.955,6.00,6,0.100,1458.000,0.200,104.000,0.300,25.000,0.500,9.000,1.000,0,5.000,0
"04/05/08","03:00:18",1605.000,"cc",28289.258,6.00,6,0.100,1448.000,0.200,110.000,0.300,34.000,0.500,13.000,1.000,0,5.000,0
"04/05/08","03:00:24",1623.000,"cc",28329.678,6.00,6,0.100,1462.000,0.200,118.000,0.300,25.000,0.500,18.000,1.000,0,5.000,0
"04/05/08","03:00:30",1709.000,"cc",28357.967,6.00,6,0.100,1554.000,0.200,114.000,0.300,29.000,0.500,12.000,1.000,0,5.000,0
"04/05/08","03:00:36",1768.000,"cc",28286.607,6.00,6,0.100,1600.000,0.200,121.000,0.300,32.000,0.500,14.000,1.000,1.000,5.000,0
"04/05/08","03:00:42",1739.000,"cc",28313.354,6.00,6,0.100,1586.000,0.200,113.000,0.300,31.000,0.500,8.000,1.000,1.000,5.000,0
"04/05/08","03:00:48",1787.000,"cc",28359.795,6.00,6,0.100,1626.000,0.200,119.000,0.300,24.000,0.500,17.000,1.000,1.000,5.000,0
"04/05/08","03:00:54",1737.000,"cc",28328.940,6.00,6,0.100,1562.000,0.200,128.000,0.300,32.000,0.500,15.000,1.000,0,5.000,0
"04/05/08","03:01:00",1868.000,"cc",28280.994,6.00,6,0.100,1689.000,0.200,129.000,0.300,37.000,0.500,11.000,1.000,2.000,5.000,0
"04/05/08","03:01:06",1922.000,"cc",28329.561,6.00,6,0.100,1740.000,0.200,127.000,0.300,37.000,0.500,17.000,1.000,1.000,5.000,0
"04/05/08","03:01:12",2045.000,"cc",28291.049,6.00,6,0.100,1875.000,0.200,138.000,0.300,17.000,0.500,14.000,1.000,1.000,5.000,0
"04/05/08","03:01:18",1940.000,"cc",28324.018,6.00,6,0.100,1758.000,0.200,131.000,0.300,35.000,0.500,15.000,1.000,1.000,5.000,0
"04/05/08","03:01:24",1978.000,"cc",28365.586,6.00,6,0.100,1810.000,0.200,127.000,0.300,31.000,0.500,8.000,1.000,2.000,5.000,0
"04/05/08","03:01:30",2064.000,"cc",28309.881,6.00,6,0.100,1877.000,0.200,143.000,0.300,29.000,0.500,13.000,1.000,2.000,5.000,0
"04/05/08","03:01:36",2126.000,"cc",28272.574,6.00,6,0.100,1896.000,0.200,159.000,0.300,49.000,0.500,22.000,1.000,0,5.000,0
"04/05/08","03:01:42",2287.000,"cc",28306.566,6.00,6,0.100,2081.000,0.200,147.000,0.300,40.000,0.500,19.000,1.000,0,5.000,0
"04/05/08","03:01:48",2328.000,"cc",28330.658,6.00,6,0.100,2105.000,0.200,159.000,0.300,39.000,0.500,24.000,1.000,1.000,5.000,0
"04/05/08","03:01:54",2373.000,"cc",28371.316,6.00,6,0.100,2136.000,0.200,166.000,0.300,46.000,0.500,23.000,1.000,2.000,5.000,0
"04/05/08","03:02:00",2393.000,"cc",28251.709,6.00,6,0.100,2150.000,0.200,168.000,0.300,45.000,0.500,29.000,1.000,1.000,5.000,0
"04/05/08","03:02:06",2499.000,"cc",28316.518,6.00,6,0.100,2246.000,0.200,171.000,0.300,53.000,0.500,26.000,1.000,3.000,5.000,0
"04/05/08","03:02:12",2499.000,"cc",28354.727,6.00,6,0.100,2251.000,0.200,172.000,0.300,45.000,0.500,28.000,1.000,3.000,5.000,0
"04/05/08","03:02:18",2535.000,"cc",28280.932,6.00,6,0.100,2281.000,0.200,178.000,0.300,47.000,0.500,29.000,1.000,0,5.000,0
"04/05/08","03:02:24",2632.000,"cc",28327.627,6.00,6,0.100,2364.000,0.200,177.000,0.300,54.000,0.500,31.000,1.000,6.000,5.000,0
"04/05/08","03:02:30",2634.000,"cc",28363.344,6.00,6,0.100,2331.000,0.200,213.000,0.300,62.000,0.500,26.000,1.000,2.000,5.000,0
"04/05/08","03:02:36",2576.000,"cc",28290.957,6.00,6,0.100,2309.000,0.200,201.000,0.300,42.000,0.500,19.000,1.000,5.000,5.000,0
"04/05/08","03:02:42",2627.000,"cc",28305.682,6.00,6,0.100,2400.000,0.200,157.000,0.300,42.000,0.500,23.000,1.000,5.000,5.000,0
"04/05/08","03:02:48",2653.000,"cc",28305.678,6.00,6,0.100,2382.000,0.200,210.000,0.300,40.000,0.500,19.000,1.000,2.000,5.000,0
"04/05/08","03:02:54",2634.000,"cc",28312.623,6.00,6,0.100,2359.000,0.200,196.000,0.300,50.000,0.500,27.000,1.000,2.000,5.000,0
"04/05/08","03:03:00",2699.000,"cc",28287.441,6.00,6,0.100,2440.000,0.200,181.000,0.300,45.000,0.500,29.000,1.000,4.000,5.000,0
"04/05/08","03:03:06",2526.000,"cc",28370.318,6.00,6,0.100,2245.000,0.200,199.000,0.300,51.000,0.500,26.000,1.000,5.000,5.000,0
"04/05/08","03:03:12",2621.000,"cc",28298.262,6.00,6,0.100,2326.000,0.200,198.000,0.300,55.000,0.500,39.000,1.000,3.000,5.000,0
"04/05/08","03:03:18",2617.000,"cc",28317.721,6.00,6,0.100,2328.000,0.200,194.000,0.300,64.000,0.500,28.000,1.000,3.000,5.000,0
"04/05/08","03:03:24",2648.000,"cc",28321.883,6.00,6,0.100,2358.000,0.200,194.000,0.300,70.000,0.500,24.000,1.000,2.000,5.000,0
"04/05/08","03:03:30",2541.000,"cc",28255.873,6.00,6,0.100,2259.000,0.200,190.000,0.300,61.000,0.500,30.000,1.000,1.000,5.000,0
"04/05/08","03:03:36",2559.000,"cc",28294.395,6.00,6,0.100,2284.000,0.200,194.000,0.300,50.000,0.500,28.000,1.000,3.000,5.000,0
"04/05/08","03:03:42",2599.000,"cc",28377.510,6.00,6,0.100,2340.000,0.200,185.000,0.300,45.000,0.500,26.000,1.000,3.000,5.000,0
"04/05/08","03:03:48",2502.000,"cc",28345.164,6.00,6,0.100,2214.000,0.200,212.000,0.300,40.000,0.500,33.000,1.000,3.000,5.000,0
"04/05/08","03:03:54",2422.000,"cc",28305.037,6.00,6,0.100,2151.000,0.200,193.000,0.300,43.000,0.500,32.000,1.000,3.000,5.000,0
"04/05/08","03:04:00",2460.000,"cc",28326.561,6.00,6,0.100,2184.000,0.200,199.000,0.300,48.000,0.500,25.000,1.000,4.000,5.000,0
"04/05/08","03:04:06",2418.000,"cc",28284.000,6.00,6,0.100,2175.000,0.200,165.000,0.300,51.000,0.500,24.000,1.000,3.000,5.000,0
"04/05/08","03:04:12",2483.000,"cc",28330.770,6.00,6,0.100,2220.000,0.200,169.000,0.300,53.000,0.500,37.000,1.000,4.000,5.000,0
"04/05/08","03:04:18",2450.000,"cc",28284.121,6.00,6,0.100,2185.000,0.200,176.000,0.300,63.000,0.500,25.000,1.000,1.000,5.000,0
"04/05/08","03:04:24",2391.000,"cc",28327.484,6.00,6,0.100,2164.000,0.200,151.000,0.300,44.000,0.500,30.000,1.000,2.000,5.000,0
"04/05/08","03:04:30",2435.000,"cc",28293.809,6.00,6,0.100,2196.000,0.200,170.000,0.300,42.000,0.500,25.000,1.000,2.000,5.000,0
"04/05/08","03:04:36",2236.000,"cc",28288.275,6.00,6,0.100,2006.000,0.200,166.000,0.300,36.000,0.500,25.000,1.000,3.000,5.000,0
"04/05/08","03:04:42",2278.000,"cc",28356.172,6.00,6,0.100,2053.000,0.200,158.000,0.300,36.000,0.500,29.000,1.000,2.000,5.000,0
"04/05/08","03:04:48",2487.000,"cc",28370.518,6.00,6,0.100,2237.000,0.200,160.000,0.300,57.000,0.500,32.000,1.000,1.000,5.000,0
"04/05/08","03:04:54",2369.000,"cc",28243.885,6.00,6,0.100,2121.000,0.200,172.000,0.300,44.000,0.500,28.000,1.000,4.000,5.000,0
"04/05/08","03:05:00",2301.000,"cc",28305.580,6.00,6,0.100,2056.000,0.200,150.000,0.300,58.000,0.500,36.000,1.000,1.000,5.000,0
"04/05/08","03:05:06",2314.000,"cc",28402.857,6.00,6,0.100,2052.000,0.200,161.000,0.300,63.000,0.500,30.000,1.000,8.000,5.000,0
"04/05/08","03:05:12",2404.000,"cc",28304.213,6.00,6,0.100,2143.000,0.200,153.000,0.300,57.000,0.500,45.000,1.000,6.000,5.000,0
"04/05/08","03:05:18",2364.000,"cc",28308.463,6.00,6,0.100,2105.000,0.200,159.000,0.300,51.000,0.500,42.000,1.000,7.000,5.000,0
"04/05/08","03:05:24",2329.000,"cc",28305.367,6.00,6,0.100,2099.000,0.200,144.000,0.300,39.000,0.500,39.000,1.000,8.000,5.000,0
"04/05/08","03:05:30",2539.000,"cc",28313.672,6.00,6,0.100,2261.000,0.200,183.000,0.300,51.000,0.500,37.000,1.000,7.000,5.000,0
"04/05/08","03:05:36",2587.000,"cc",28313.096,6.00,6,0.100,2278.000,0.200,191.000,0.300,66.000,0.500,40.000,1.000,12.000,5.000,0
"04/05/08","03:05:42",2542.000,"cc",28343.912,6.00,6,0.100,2275.000,0.200,173.000,0.300,44.000,0.500,37.000,1.000,13.000,5.000,0
"04/05/08","03:05:48",2660.000,"cc",28346.590,6.00,6,0.100,2380.000,0.200,185.000,0.300,57.000,0.500,32.000,1.000,6.000,5.000,0
"04/05/08","03:05:54",2702.000,"cc",28344.773,6.00,6,0.100,2405.000,0.200,189.000,0.300,52.000,0.500,50.000,1.000,6.000,5.000,0
"04/05/08","03:06:00",2516.000,"cc",28290.611,6.00,6,0.100,2248.000,0.200,171.000,0.300,54.000,0.500,39.000,1.000,4.000,5.000,0
"04/05/08","03:06:06",2710.000,"cc",28290.893,6.00,6,0.100,2416.000,0.200,184.000,0.300,61.000,0.500,43.000,1.000,6.000,5.000,0
"04/05/08","03:06:12",2812.000,"cc",28350.137,6.00,6,0.100,2514.000,0.200,194.000,0.300,64.000,0.500,35.000,1.000,5.000,5.000,0
"04/05/08","03:06:18",2886.000,"cc",28346.777,6.00,6,0.100,2555.000,0.200,216.000,0.300,60.000,0.500,50.000,1.000,5.000,5.000,0
"04/05/08","03:06:24",2719.000,"cc",28364.246,6.00,6,0.100,2417.000,0.200,190.000,0.300,63.000,0.500,39.000,1.000,10.000,5.000,0
"04/05/08","03:06:30",2761.000,"cc",28232.256,6.00,6,0.100,2446.000,0.200,197.000,0.300,69.000,0.500,43.000,1.000,6.000,5.000,0
"04/05/08","03:06:36",2825.000,"cc",28292.811,6.00,6,0.100,2517.000,0.200,213.000,0.300,61.000,0.500,30.000,1.000,4.000,5.000,0
"04/05/08","03:06:42",2857.000,"cc",28279.639,6.00,6,0.100,2559.000,0.200,189.000,0.300,62.000,0.500,43.000,1.000,4.000,5.000,0
"04/05/08","03:06:48",2831.000,"cc",28369.615,6.00,6,0.100,2518.000,0.200,190.000,0.300,66.000,0.500,54.000,1.000,3.000,5.000,0
"04/05/08","03:06:54",2674.000,"cc",28346.422,6.00,6,0.100,2403.000,0.200,169.000,0.300,53.000,0.500,44.000,1.000,5.000,5.000,0
"04/05/08","03:07:00",2681.000,"cc",28284.158,6.00,6,0.100,2411.000,0.200,160.000,0.300,59.000,0.500,47.000,1.000,4.000,5.000,0
"04/05/08","03:07:06",2781.000,"cc",28307.412,6.00,6,0.100,2482.000,0.200,187.000,0.300,62.000,0.500,41.000,1.000,9.000,5.000,0
"04/05/08","03:07:12",2909.000,"cc",28350.428,6.00,6,0.100,2603.000,0.200,199.000,0.300,53.000,0.500,42.000,1.000,12.000,5.000,0
"04/05/08","03:07:18",2978.000,"cc",28282.117,6.00,6,0.100,2628.000,0.200,217.000,0.300,67.000,0.500,56.000,1.000,10.000,5.000,0
"04/05/08","03:07:24",2858.000,"cc",28314.291,6.00,6,0.100,2536.000,0.200,201.000,0.300,63.000,0.500,50.000,1.000,8.000,5.000,0
"04/05/08","03:07:30",2809.000,"cc",28266.959,6.00,6,0.100,2503.000,0.200,173.000,0.300,62.000,0.500,61.000,1.000,10.000,5.000,0
"04/05/08","03:07:36",2821.000,"cc",28354.715,6.00,6,0.100,2502.000,0.200,198.000,0.300,59.000,0.500,54.000,1.000,8.000,5.000,0
"04/05/08","03:07:42",2867.000,"cc",28238.895,6.00,6,0.100,2580.000,0.200,178.000,0.300,49.000,0.500,51.000,1.000,9.000,5.000,0
"04/05/08","03:07:48",2748.000,"cc",28323.398,6.00,6,0.100,2473.000,0.200,168.000,0.300,54.000,0.500,43.000,1.000,10.000,5.000,0
"04/05/08","03:07:54",2820.000,"cc",28357.584,6.00,6,0.100,2515.000,0.200,183.000,0.300,56.000,0.500,62.000,1.000,4.000,5.000,0
"04/05/08","03:08:00",2961.000,"cc",28329.537,6.00,6,0.100,2626.000,0.200,201.000,0.300,77.000,0.500,49.000,1.000,8.000,5.000,0
"04/05/08","03:08:06",3010.000,"cc",28235.445,6.00,6,0.100,2714.000,0.200,179.000,0.300,60.000,0.500,52.000,1.000,5.000,5.000,0
"04/05/08","03:08:12",2972.000,"cc",28340.400,6.00,6,0.100,2616.000,0.200,204.000,0.300,73.000,0.500,68.000,1.000,11.000,5.000,0
"04/05/08","03:08:18",2990.000,"cc",28306.549,6.00,6,0.100,2646.000,0.200,225.000,0.300,60.000,0.500,52.000,1.000,7.000,5.000,0
"04/05/08","03:08:24",3079.000,"cc",28350.482,6.00,6,0.100,2705.000,0.200,231.000,0.300,79.000,0.500,49.000,1.000,15.000,5.000,0
"04/05/08","03:08:30",2960.000,"cc",28301.781,6.00,6,0.100,2607.000,0.200,222.000,0.300,52.000,0.500,61.000,1.000,18.000,5.000,0
"04/05/08","03:08:36",3091.000,"cc",28316.961,6.00,6,0.100,2729.000,0.200,221.000,0.300,69.000,0.500,62.000,1.000,10.000,5.000,0
"04/05/08","03:08:42",3015.000,"cc",28320.582,6.00,6,0.100,2683.000,0.200,204.000,0.300,61.000,0.500,52.000,1.000,15.000,5.000,0
"04/05/08","03:08:48",3201.000,"cc",28348.832,6.00,6,0.100,2843.000,0.200,217.000,0.300,75.000,0.500,60.000,1.000,6.000,5.000,0
"04/05/08","03:08:54",3338.000,"cc",28272.910,6.00,6,0.100,2949.000,0.200,245.000,0.300,74.000,0.500,52.000,1.000,18.000,5.000,0
"04/05/08","03:09:00",3234.000,"cc",28271.830,6.00,6,0.100,2855.000,0.200,255.000,0.300,64.000,0.500,51.000,1.000,9.000,5.000,0
"04/05/08","03:09:06",3312.000,"cc",28362.643,6.00,6,0.100,2931.000,0.200,238.000,0.300,71.000,0.500,61.000,1.000,11.000,5.000,0
"04/05/08","03:09:12",3273.000,"cc",28272.045,6.00,6,0.100,2921.000,0.200,205.000,0.300,79.000,0.500,56.000,1.000,12.000,5.000,0
"04/05/08","03:09:18",3248.000,"cc",28441.498,6.00,6,0.100,2899.000,0.200,208.000,0.300,72.000,0.500,58.000,1.000,11.000,5.000,0
"04/05/08","03:09:24",3147.000,"cc",28266.971,6.00,6,0.100,2774.000,0.200,226.000,0.300,67.000,0.500,67.000,1.000,13.000,5.000,0
"04/05/08","03:09:30",3216.000,"cc",28301.246,6.00,6,0.100,2869.000,0.200,227.000,0.300,67.000,0.500,43.000,1.000,10.000,5.000,0
"04/05/08","03:09:36",3160.000,"cc",28264.107,6.00,6,0.100,2828.000,0.200,211.000,0.300,69.000,0.500,46.000,1.000,6.000,5.000,0
"04/05/08","03:09:42",3156.000,"cc",28349.096,6.00,6,0.100,2797.000,0.200,214.000,0.300,69.000,0.500,60.000,1.000,16.000,5.000,0
"04/05/08","03:09:48",3251.000,"cc",28263.731,6.00,6,0.100,2905.000,0.200,215.000,0.300,76.000,0.500,45.000,1.000,10.000,5.000,0
"04/05/08","03:09:54",3210.000,"cc",28354.906,6.00,6,0.100,2860.000,0.200,227.000,0.300,72.000,0.500,44.000,1.000,7.000,5.000,0
"04/05/08","03:10:00",3247.000,"cc",28318.201,6.00,6,0.100,2881.000,0.200,244.000,0.300,71.000,0.500,42.000,1.000,9.000,5.000,0
"04/05/08","03:10:06",3186.000,"cc",28377.191,6.00,6,0.100,2879.000,0.200,183.000,0.300,70.000,0.500,46.000,1.000,8.000,5.000,0
"04/05/08","03:10:12",3215.000,"cc",28299.227,6.00,6,0.100,2853.000,0.200,238.000,0.300,72.000,0.500,49.000,1.000,3.000,5.000,0
"04/05/08","03:10:18",3209.000,"cc",28269.900,6.00,6,0.100,2851.000,0.200,228.000,0.300,87.000,0.500,36.000,1.000,7.000,5.000,0
"04/05/08","03:10:24",3335.000,"cc",28292.897,6.00,6,0.100,3014.000,0.200,221.000,0.300,66.000,0.500,32.000,1.000,2.000,5.000,0
"04/05/08","03:10:30",3250.000,"cc",28307.225,6.00,6,0.100,2916.000,0.200,232.000,0.300,61.000,0.500,39.000,1.000,2.000,5.000,0
"04/05/08","03:10:36",3388.000,"cc",28361.904,6.00,6,0.100,3080.000,0.200,217.000,0.300,62.000,0.500,27.000,1.000,2.000,5.000,0
"04/05/08","03:10:42",3343.000,"cc",28326.068,6.00,6,0.100,3016.000,0.200,230.000,0.300,65.000,0.500,29.000,1.000,3.000,5.000,0
"04/05/08","03:10:48",3327.000,"cc",28256.285,6.00,6,0.100,2992.000,0.200,251.000,0.300,62.000,0.500,20.000,1.000,2.000,5.000,0
"04/05/08","03:10:54",3472.000,"cc",28310.010,6.00,6,0.100,3108.000,0.200,261.000,0.300,70.000,0.500,31.000,1.000,2.000,5.000,0
"04/05/08","03:11:00",3350.000,"cc",28378.346,6.00,6,0.100,3069.000,0.200,210.000,0.300,51.000,0.500,18.000,1.000,2.000,5.000,0
"04/05/08","03:11:06",3380.000,"cc",28298.084,6.00,6,0.100,3074.000,0.200,223.000,0.300,63.000,0.500,20.000,1.000,0,5.000,0
"04/05/08","03:11:12",3312.000,"cc",28303.568,6.00,6,0.100,3021.000,0.200,237.000,0.300,36.000,0.500,17.000,1.000,1.000,5.000,0
"04/05/08","03:11:18",3283.000,"cc",28290.697,6.00,6,0.100,2953.000,0.200,260.000,0.300,49.000,0.500,20.000,1.000,1.000,5.000,0
"04/05/08","03:11:24",3271.000,"cc",28356.973,6.00,6,0.100,2985.000,0.200,211.000,0.300,50.000,0.500,22.000,1.000,3.000,5.000,0
"04/05/08","03:11:30",3369.000,"cc",28194.834,6.00,6,0.100,3040.000,0.200,248.000,0.300,62.000,0.500,18.000,1.000,1.000,5.000,0
"04/05/08","03:11:36",3413.000,"cc",28330.805,6.00,6,0.100,3119.000,0.200,230.000,0.300,51.000,0.500,13.000,1.000,0,5.000,0
"04/05/08","03:11:42",3479.000,"cc",28351.893,6.00,6,0.100,3155.000,0.200,249.000,0.300,50.000,0.500,23.000,1.000,2.000,5.000,0
"04/05/08","03:11:48",3467.000,"cc",28324.869,6.00,6,0.100,3173.000,0.200,217.000,0.300,59.000,0.500,17.000,1.000,1.000,5.000,0
"04/05/08","03:11:54",3437.000,"cc",28299.565,6.00,6,0.100,3114.000,0.200,261.000,0.300,47.000,0.500,15.000,1.000,0,5.000,0
"04/05/08","03:12:00",3381.000,"cc",28377.699,6.00,6,0.100,3063.000,0.200,226.000,0.300,71.000,0.500,21.000,1.000,0,5.000,0
"04/05/08","03:12:06",3308.000,"cc",28397.772,6.00,6,0.100,3027.000,0.200,214.000,0.300,50.000,0.500,17.000,1.000,0,5.000,0
"04/05/08","03:12:12",3523.000,"cc",28271.533,6.00,6,0.100,3194.000,0.200,250.000,0.300,64.000,0.500,13.000,1.000,2.000,5.000,0
"04/05/08","03:12:18",3383.000,"cc",28255.049,6.00,6,0.100,3015.000,0.200,247.000,0.300,82.000,0.500,34.000,1.000,5.000,5.000,0
"04/05/08","03:12:24",3492.000,"cc",28297.408,6.00,6,0.100,3165.000,0.200,233.000,0.300,64.000,0.500,29.000,1.000,1.000,5.000,0
"04/05/08","03:12:30",3432.000,"cc",28342.881,6.00,6,0.100,3102.000,0.200,246.000,0.300,55.000,0.500,28.000,1.000,1.000,5.000,0
"04/05/08","03:12:36",3426.000,"cc",28330.322,6.00,6,0.100,3101.000,0.200,218.000,0.300,57.000,0.500,46.000,1.000,4.000,5.000,0
"04/05/08","03:12:42",3384.000,"cc",28268.834,6.00,6,0.100,3052.000,0.200,230.000,0.300,64.000,0.500,30.000,1.000,8.000,5.000,0
"04/05/08","03:12:48",3322.000,"cc",28372.420,6.00,6,0.100,2996.000,0.200,210.000,0.300,68.000,0.500,45.000,1.000,3.000,5.000,0
"04/05/08","03:12:54",3289.000,"cc",28365.867,6.00,6,0.100,2963.000,0.200,213.000,0.300,68.000,0.500,43.000,1.000,2.000,5.000,0
"04/05/08","03:13:00",3443.000,"cc",28280.102,6.00,6,0.100,3101.000,0.200,232.000,0.300,69.000,0.500,36.000,1.000,5.000,5.000,0
"04/05/08","03:13:06",3367.000,"cc",28319.549,6.00,6,0.100,3028.000,0.200,239.000,0.300,62.000,0.500,33.000,1.000,5.000,5.000,0
"04/05/08","03:13:12",3418.000,"cc",28327.525,6.00,6,0.100,3054.000,0.200,257.000,0.300,67.000,0.500,38.000,1.000,2.000,5.000,0
"04/05/08","03:13:18",3455.000,"cc",28252.801,6.00,6,0.100,3117.000,0.200,234.000,0.300,70.000,0.500,30.000,1.000,4.000,5.000,0
"04/05/08","03:13:24",3352.000,"cc",28301.260,6.00,6,0.100,3010.000,0.200,248.000,0.300,59.000,0.500,33.000,1.000,2.000,5.000,0
"04/05/08","03:13:30",3532.000,"cc",28287.721,6.00,6,0.100,3202.000,0.200,246.000,0.300,52.000,0.500,30.000,1.000,2.000,5.000,0
"04/05/08","03:13:36",3436.000,"cc",28329.342,6.00,6,0.100,3137.000,0.200,204.000,0.300,61.000,0.500,34.000,1.000,0,5.000,0
"04/05/08","03:13:42",3335.000,"cc",28299.920,6.00,6,0.100,2992.000,0.200,258.000,0.300,56.000,0.500,27.000,1.000,2.000,5.000,0
"04/05/08","03:13:48",3361.000,"cc",28340.152,6.00,6,0.100,3059.000,0.200,224.000,0.300,64.000,0.500,13.000,1.000,1.000,5.000,0
"04/05/08","03:13:54",3380.000,"cc",28348.348,6.00,6,0.100,3083.000,0.200,228.000,0.300,46.000,0.500,21.000,1.000,2.000,5.000,0
"04/05/08","03:14:00",3326.000,"cc",28319.908,6.00,6,0.100,3034.000,0.200,216.000,0.300,50.000,0.500,26.000,1.000,0,5.000,0
"04/05/08","03:14:06",3263.000,"cc",28324.936,6.00,6,0.100,2977.000,0.200,207.000,0.300,59.000,0.500,19.000,1.000,1.000,5.000,0
"04/05/08","03:14:12",3344.000,"cc",28329.100,6.00,6,0.100,3038.000,0.200,232.000,0.300,55.000,0.500,16.000,1.000,3.000,5.000,0
"04/05/08","03:14:18",3236.000,"cc",28295.320,6.00,6,0.100,2962.000,0.200,213.000,0.300,41.000,0.500,20.000,1.000,0,5.000,0
"04/05/08","03:14:24",3384.000,"cc",28311.592,6.00,6,0.100,3089.000,0.200,234.000,0.300,47.000,0.500,14.000,1.000,0,5.000,0
"04/05/08","03:14:30",3253.000,"cc",28310.662,6.00,6,0.100,2982.000,0.200,217.000,0.300,40.000,0.500,12.000,1.000,2.000,5.000,0
"04/05/08","03:14:36",3128.000,"cc",28336.580,6.00,6,0.100,2865.000,0.200,204.000,0.300,45.000,0.500,14.000,1.000,0,5.000,0
"04/05/08","03:14:42",3203.000,"cc",28326.914,6.00,6,0.100,2885.000,0.200,254.000,0.300,48.000,0.500,15.000,1.000,1.000,5.000,0
"04/05/08","03:14:48",3315.000,"cc",28310.240,6.00,6,0.100,3037.000,0.200,218.000,0.300,43.000,0.500,16.000,1.000,1.000,5.000,0
"04/05/08","03:14:54",2983.000,"cc",28286.811,6.00,6,0.100,2725.000,0.200,210.000,0.300,35.000,0.500,13.000,1.000,0,5.000,0
"04/05/08","03:15:00",2927.000,"cc",28344.859,6.00,6,0.100,2678.000,0.200,182.000,0.300,54.000,0.500,12.000,1.000,1.000,5.000,0
"04/05/08","03:15:06",3002.000,"cc",28302.481,6.00,6,0.100,2750.000,0.200,189.000,0.300,41.000,0.500,22.000,1.000,0,5.000,0
"04/05/08","03:15:12",3028.000,"cc",28261.977,6.00,6,0.100,2750.000,0.200,203.000,0.300,58.000,0.500,16.000,1.000,1.000,5.000,0
"04/05/08","03:15:18",3045.000,"cc",28361.961,6.00,6,0.100,2779.000,0.200,202.000,0.300,49.000,0.500,13.000,1.000,2.000,5.000,0
"04/05/08","03:15:24",2795.000,"cc",28280.904,6.00,6,0.100,2535.000,0.200,191.000,0.300,50.000,0.500,15.000,1.000,4.000,5.000,0
"04/05/08","03:15:30",3004.000,"cc",28332.721,6.00,6,0.100,2720.000,0.200,200.000,0.300,52.000,0.500,31.000,1.000,1.000,5.000,0
"04/05/08","03:15:36",3092.000,"cc",28313.119,6.00,6,0.100,2787.000,0.200,233.000,0.300,45.000,0.500,25.000,1.000,2.000,5.000,0
"04/05/08","03:15:42",3091.000,"cc",28349.676,6.00,6,0.100,2784.000,0.200,219.000,0.300,56.000,0.500,31.000,1.000,1.000,5.000,0
"04/05/08","03:15:48",3071.000,"cc",28286.883,6.00,6,0.100,2788.000,0.200,198.000,0.300,54.000,0.500,28.000,1.000,3.000,5.000,0
"04/05/08","03:15:54",3128.000,"cc",28357.020,6.00,6,0.100,2865.000,0.200,184.000,0.300,48.000,0.500,25.000,1.000,6.000,5.000,0
"04/05/08","03:16:00",3122.000,"cc",28380.377,6.00,6,0.100,2832.000,0.200,201.000,0.300,53.000,0.500,34.000,1.000,2.000,5.000,0
"04/05/08","03:16:06",3120.000,"cc",28227.299,6.00,6,0.100,2788.000,0.200,235.000,0.300,54.000,0.500,41.000,1.000,2.000,5.000,0
"04/05/08","03:16:12",3175.000,"cc",28314.440,6.00,6,0.100,2859.000,0.200,205.000,0.300,72.000,0.500,33.000,1.000,6.000,5.000,0
"04/05/08","03:16:18",3128.000,"cc",28363.447,6.00,6,0.100,2844.000,0.200,208.000,0.300,44.000,0.500,30.000,1.000,2.000,5.000,0
"04/05/08","03:16:24",3177.000,"cc",28359.422,6.00,6,0.100,2891.000,0.200,203.000,0.300,61.000,0.500,20.000,1.000,2.000,5.000,0
"04/05/08","03:16:30",3337.000,"cc",28369.379,6.00,6,0.100,3012.000,0.200,236.000,0.300,50.000,0.500,34.000,1.000,5.000,5.000,0
"04/05/08","03:16:36",3368.000,"cc",28302.635,6.00,6,0.100,3040.000,0.200,235.000,0.300,68.000,0.500,23.000,1.000,2.000,5.000,0
"04/05/08","03:16:42",3450.000,"cc",28225.424,6.00,6,0.100,3144.000,0.200,226.000,0.300,63.000,0.500,17.000,1.000,0,5.000,0
"04/05/08","03:16:48",3312.000,"cc",28368.795,6.00,6,0.100,3017.000,0.200,218.000,0.300,54.000,0.500,21.000,1.000,2.000,5.000,0
"04/05/08","03:16:54",3315.000,"cc",28363.416,6.00,6,0.100,2998.000,0.200,231.000,0.300,55.000,0.500,27.000,1.000,4.000,5.000,0
"04/05/08","03:17:00",3409.000,"cc",28282.266,6.00,6,0.100,3086.000,0.200,230.000,0.300,51.000,0.500,39.000,1.000,3.000,5.000,0
"04/05/08","03:17:06",3505.000,"cc",28286.279,6.00,6,0.100,3187.000,0.200,244.000,0.300,53.000,0.500,20.000,1.000,1.000,5.000,0
"04/05/08","03:17:12",3521.000,"cc",28283.984,6.00,6,0.100,3203.000,0.200,247.000,0.300,52.000,0.500,17.000,1.000,2.000,5.000,0
"04/05/08","03:17:18",3362.000,"cc",28341.871,6.00,6,0.100,3054.000,0.200,231.000,0.300,45.000,0.500,31.000,1.000,1.000,5.000,0
"04/05/08","03:17:24",3067.000,"cc",28308.695,6.00,6,0.100,2787.000,0.200,180.000,0.300,57.000,0.500,41.000,1.000,2.000,5.000,0
"04/05/08","03:17:30",3508.000,"cc",28314.275,6.00,6,0.100,3136.000,0.200,280.000,0.300,57.000,0.500,31.000,1.000,4.000,5.000,0